^^
WesterhopeWX Station Historical Data
 
Daily Summary for April 24, 2018 Units:  Metric    English   Both
Daily Weekly Monthly Yearly Custom
  Current: High: Low: Average:
Temperature: 8.8 °C 9.3 °C 8.8 °C 9 °C
Dew Point: 4.6 °C 5.3 °C 4.3 °C 4.7 °C
Humidity: 75% 76% 73% 75%
Wind Speed: 16.3km/h 20.9km/h 3.2km/h 10.8km/h
Wind Gust: 19.3km/h 37.0km/h - -
WindSSE - - SW
Pressure: 1005.0 hPa 1005.3 hPa 1005.0 hPa -
Precipitation: 0.0 mm      
Historical Graphs
 
 
Tabular Data for April 24, 2018
Time Temperature Dew Point Pressure Wind Wind Speed Wind Gust Humidity Rainfall Rate (Hourly) solar
00:04 9.3 °C 5.3 °C 1005.0 hPa SW 19.5 km/h 20.9 km/h 76% 0.0 mm 0.0 W/m2
00:09 9.2 °C 5.2 °C 1005.0 hPa SW 4.7 km/h 16.1 km/h 76% 0.0 mm 0.0 W/m2
00:14 9.2 °C 5.2 °C 1005.0 hPa SSW 6.4 km/h 17.7 km/h 76% 0.0 mm 0.0 W/m2
00:19 9.1 °C 5.1 °C 1005.3 hPa SSW 9.7 km/h 12.9 km/h 76% 0.0 mm 0.0 W/m2
00:24 9.0 °C 4.8 °C 1005.3 hPa South 4.7 km/h 16.1 km/h 75% 0.0 mm 0.0 W/m2
00:30 8.9 °C 4.5 °C 1005.3 hPa NNW 7.9 km/h 19.3 km/h 74% 0.0 mm 0.0 W/m2
00:35 8.9 °C 4.5 °C 1005.3 hPa SSW 9.7 km/h 16.1 km/h 74% 0.0 mm 0.0 W/m2
00:40 8.9 °C 4.3 °C 1005.3 hPa SE 3.2 km/h 35.4 km/h 73% 0.0 mm 0.0 W/m2
00:45 9.1 °C 4.5 °C 1005.3 hPa SSW 14.3 km/h 37.0 km/h 73% 0.0 mm 0.0 W/m2
00:50 9.1 °C 4.7 °C 1005.3 hPa SW 19.5 km/h 29.0 km/h 74% 0.0 mm 0.0 W/m2
00:55 9.1 °C 4.7 °C 1005.3 hPa West 20.9 km/h 29.0 km/h 74% 0.0 mm 0.0 W/m2
01:01 9.1 °C 4.7 °C 1005.3 hPa NE 9.7 km/h 22.5 km/h 74% 0.0 mm 0.0 W/m2
01:06 9.1 °C 4.9 °C 1005.0 hPa West 6.4 km/h 24.1 km/h 75% 0.0 mm 0.0 W/m2
01:11 9.0 °C 4.8 °C 1005.0 hPa West 17.7 km/h 17.7 km/h 75% 0.0 mm 0.0 W/m2
01:16 8.9 °C 4.7 °C 1005.0 hPa SSW 17.7 km/h 24.1 km/h 75% 0.0 mm 0.0 W/m2
01:21 8.9 °C 4.5 °C 1005.0 hPa SW 7.9 km/h 24.1 km/h 74% 0.0 mm 0.0 W/m2
01:26 9.0 °C 4.6 °C 1005.0 hPa SW 14.3 km/h 19.3 km/h 74% 0.0 mm 0.0 W/m2
01:32 9.0 °C 4.6 °C 1005.0 hPa SSW 7.9 km/h 24.1 km/h 74% 0.0 mm 0.0 W/m2
01:37 8.9 °C 4.5 °C 1005.3 hPa WSW 6.4 km/h 12.9 km/h 74% 0.0 mm 0.0 W/m2
01:42 8.9 °C 4.5 °C 1005.0 hPa SW 6.4 km/h 11.3 km/h 74% 0.0 mm 0.0 W/m2
01:47 8.9 °C 4.5 °C 1005.0 hPa West 9.7 km/h 9.7 km/h 74% 0.0 mm 0.0 W/m2
01:52 8.9 °C 4.7 °C 1005.0 hPa SSW 6.4 km/h 9.7 km/h 75% 0.0 mm 0.0 W/m2
01:57 8.8 °C 4.6 °C 1005.0 hPa SSE 16.3 km/h 19.3 km/h 75% 0.0 mm 0.0 W/m2
Westerhope, Newcastle upon Tyne, UK
Compliments of Weather Underground - 4 mb